TimeMST,TemperatureF,Dew PointF,Humidity,Sea Level PressureIn,VisibilityMPH,Wind Direction,Wind SpeedMPH,Gust SpeedMPH,PrecipitationIn,Events,Conditions,WindDirDegrees,DateUTC
12:53 AM,66.9,37.0,33,29.79,10.0,SSE,4.6,-,N/A,,Clear,150,2013-09-21 07:53:00
1:53 AM,70.0,37.9,31,29.78,10.0,SSW,4.6,-,N/A,,Clear,200,2013-09-21 08:53:00
2:53 AM,69.1,37.9,32,29.77,10.0,Variable,3.5,-,N/A,,Clear,0,2013-09-21 09:53:00
3:53 AM,63.0,39.9,43,29.79,10.0,SSE,5.8,-,N/A,,Clear,150,2013-09-21 10:53:00
4:53 AM,63.0,41.0,45,29.79,10.0,Calm,Calm,-,N/A,,Clear,0,2013-09-21 11:53:00
5:53 AM,70.0,41.0,35,29.79,10.0,SSW,9.2,-,N/A,,Clear,200,2013-09-21 12:53:00
6:53 AM,69.1,43.0,39,29.81,10.0,SSW,9.2,-,N/A,,Clear,210,2013-09-21 13:53:00
7:53 AM,71.1,45.0,39,29.82,10.0,South,4.6,-,N/A,,Mostly Cloudy,190,2013-09-21 14:53:00
8:53 AM,73.9,46.0,37,29.82,10.0,Calm,Calm,-,N/A,,Scattered Clouds,0,2013-09-21 15:53:00
9:53 AM,75.9,45.0,33,29.81,10.0,North,4.6,-,N/A,,Clear,10,2013-09-21 16:53:00
10:53 AM,81.0,46.0,29,29.78,10.0,NW,3.5,-,N/A,,Clear,310,2013-09-21 17:53:00
11:53 AM,84.9,46.0,26,29.75,10.0,NNE,8.1,-,N/A,,Clear,20,2013-09-21 18:53:00
12:53 PM,88.0,45.0,22,29.71,10.0,South,12.7,23.0,N/A,,Partly Cloudy,190,2013-09-21 19:53:00
1:53 PM,86.0,43.0,22,29.67,10.0,SW,10.4,24.2,N/A,,Partly Cloudy,220,2013-09-21 20:53:00
2:53 PM,88.0,43.0,21,29.63,10.0,SSW,13.8,23.0,N/A,,Partly Cloudy,200,2013-09-21 21:53:00
3:53 PM,89.1,39.0,17,29.61,10.0,SSW,16.1,26.5,N/A,,Clear,200,2013-09-21 22:53:00
4:53 PM,86.0,41.0,20,29.60,10.0,WSW,10.4,19.6,N/A,,Clear,240,2013-09-21 23:53:00
5:53 PM,82.9,43.0,24,29.58,10.0,SW,9.2,16.1,N/A,,Clear,230,2013-09-22 00:53:00
6:53 PM,82.0,44.1,26,29.58,10.0,SW,9.2,17.3,N/A,,Clear,230,2013-09-22 01:53:00
7:53 PM,77.0,44.1,31,29.59,10.0,South,5.8,-,N/A,,Clear,190,2013-09-22 02:53:00
8:53 PM,78.1,43.0,29,29.59,10.0,South,10.4,-,N/A,,Clear,180,2013-09-22 03:53:00
9:53 PM,77.0,41.0,28,29.60,10.0,SSW,5.8,-,N/A,,Clear,210,2013-09-22 04:53:00
10:53 PM,75.9,42.1,30,29.58,10.0,South,5.8,-,N/A,,Clear,190,2013-09-22 05:53:00
11:53 PM,73.0,42.1,33,29.57,10.0,South,9.2,-,N/A,,Clear,170,2013-09-22 06:53:00